Regional Weather Roundup
Issued by NWS

Home | Current Version | Previous Version | Text Only | Print | Product List | Glossary On
Versions: 1 2 3 4 5 6 7 8 9 10 11 12 13 14 15 16 17 18 19 20 21 22 23 24 25 26 27 28 29 30 31 32 33 34 35 36 37 38 39 40 41 42 43 44 45 46 47 48 49 50
091
ASUS43 KTOP 200159
RWRKS

WEATHER ROUNDUP FOR KANSAS
NATIONAL WEATHER SERVICE GOODLAND KS
800 PM CST FRI JAN 19 2018

NOTE:  "FAIR" INDICATES FEW OR NO CLOUDS BELOW 12,000 FEET WITH NO
SIGNIFICANT WEATHER AND/OR OBSTRUCTIONS TO VISIBILITY.

KSZ001>006-013>018-027>032-041>047-200300-
NORTHWEST KANSAS

CITY           SKY/WX    TMP DP  RH WIND       PRES   REMARKS
GOODLAND       CLOUDY    41  19  41 CALM      29.72R
HAYS           CLOUDY    42  18  37 SE9       29.70S
HILL CITY      CLOUDY    44  18  35 E5        29.69R
RUSSELL        CLOUDY    48  22  35 S15       29.69S
$$

KSZ061>065-074>080-084>089-200300-
SOUTHWEST KANSAS

CITY           SKY/WX    TMP DP  RH WIND       PRES   REMARKS
DODGE CITY     CLOUDY    48  16  27 S14       29.71S
GARDEN CITY    CLOUDY    46  15  28 S8        29.70R
GREAT BEND     CLOUDY    43  20  39 S12       29.72R
LIBERAL        CLOUDY    45  16  31 S12       29.73R
$$

KSZ066>073-081>083-090>101-200300-
SOUTHEAST KANSAS

CITY           SKY/WX    TMP DP  RH WIND       PRES   REMARKS
CHANUTE        CLOUDY    42  28  57 S10       29.87S
COFFEYVILLE    CLOUDY    48  32  53 S13G22    29.89R
HUTCHINSON     CLOUDY    48  25  40 S16       29.76R
MEDICINE LODGE   N/A     50  20  30 S12       29.78R
NEWTON         CLOUDY    47  25  42 S20       29.78S
PARSONS        CLOUDY    45  31  58 S9        29.89S
WICHITA INTL   CLOUDY    47  25  42 S13       29.80R
WICHITA JABRA  CLOUDY    48  25  40 S16       29.80R
WICHITA MCCONL CLOUDY    48  23  37 S15       29.81R
WINFIELD       CLOUDY    47  27  45 S14       29.84S
$$

KSZ007>012-019>026-033>040-048>060-102>105-200300-
NORTHEAST KANSAS

CITY           SKY/WX    TMP DP  RH WIND       PRES   REMARKS
CONCORDIA      CLOUDY    45  24  43 S12       29.73R
EMPORIA        CLOUDY    41  25  53 S15       29.80S
LAWRENCE       CLOUDY    44  29  55 S14       29.80F
MANHATTAN      CLOUDY    44  26  49 SW9       29.76R
OLATHE IND     CLOUDY    41  28  60 S12       29.83S
OLATHE EXE     CLOUDY    41  28  60 S13       29.83S
SALINA         CLOUDY    43  28  55 S13       29.74R
TOPEKA BILLARD CLOUDY    45  28  51 S10       29.78S
TOPEKA FORBES  CLOUDY    45  28  51 S17       29.78S
$$




USA.gov is the U.S. government's official web portal to all federal, state and local government web resources and services.